Location: Gro�sch�nbrunn
(49.5760°N, 11.8868°E)
Time: 22:42:49
(UTC+00:00)

USA 238 DEB - Pass Details

Date: 18 September 2020
Orbit: 1004 x 1208 km, 63.4° (Epoch: 28 October)

Event Time Altitude Azimuth Distance (km) Brightness Sun altitude
Rises 19:32:18 0° 316° (NW) 3,941 8.0 -21.5°
Reaches altitude 10° 19:34:57 10° 314° (NW) 3,008 7.1 -21.9°
Maximum altitude 19:42:04 66° 235° (SW) 1,258 4.1 -22.8°
Enters shadow 19:45:40 33° 164° (SSE) 1,884 4.6 -23.3°
